Weather History for PAEN - July, 2013

Change the Weather History Date:

Thursday, July 11, 2013

  Actual Average Record
Temperature  
Mean Temperature 60 °F -  
Max Temperature 75 °F 62 °F 82 °F (1960)
Min Temperature 46 °F 48 °F 40 °F (1978)
Degree Days  
Heating Degree Days 4    
Growing Degree Days 10 (Base 50)    
Moisture  
Dew Point 47 °F    
Average Humidity 62    
Maximum Humidity 96    
Minimum Humidity 33    
Precipitation  
Precipitation 0.00 in - - ()
Sea Level Pressure  
Sea Level Pressure 29.95 in    
Wind  
Wind Speed 3 mph (NNW)    
Max Wind Speed 9 mph    
Max Gust Speed 16 mph    
Visibility 10 miles    
Events      
Averages and records for this station are not official NWS values.
T = Trace of Precipitation, MM = Missing Value Source: NWS Daily Summary

Daily Weather History Graph

Daily Weather History Graph

Search for Another Location

Airport or City:

Trip Planner

Search our weather history database for the weather conditions in past years. The results will help you decide how hot, cold, wet, or windy it might be!

Date:

Astronomy

Jul. 11, 2013 Rise Set
Actual Time 4:56 AM AKDT 11:23 PM AKDT
Civil Twilight 3:25 AM AKDT 12:52 AM AKDT
Nautical Twilight Sun does not rise Sun does not rise
Astronomical Twilight Sun does not rise Sun does not rise
Moon 9:44 AM AKDT (7/11) 11:40 PM AKDT (7/11)
Length of Visible Light 21h 27m
Length of Day
18h 27m
Waxing Crescent, 11% of the Moon is Illuminated
Jul 11
Waxing Crescent
Jul 15
First Quarter
Jul 22
Full
Jul 29
Last Quarter
Aug 6
New

Hourly Weather History & Observations

Time (AKDT) Temp. Dew Point Humidity Pressure Visibility Wind Dir Wind Speed Gust Speed Precip Events Conditions
12:53 AM 50.0 °F 46.0 °F 86% 29.96 in 10.0 mi Calm Calm - N/A   Partly Cloudy
1:53 AM 52.0 °F 46.0 °F 80% 29.96 in 10.0 mi Calm Calm - N/A   Mostly Cloudy
2:53 AM 50.0 °F 46.9 °F 89% 29.96 in 10.0 mi Calm Calm - N/A   Overcast
3:53 AM 48.9 °F 46.9 °F 93% 29.96 in 10.0 mi Calm Calm - N/A   Partly Cloudy
4:53 AM 48.9 °F 46.9 °F 93% 29.96 in 10.0 mi Calm Calm - N/A   Overcast
5:53 AM 46.0 °F 45.0 °F 96% 29.96 in 10.0 mi Calm Calm - N/A   Clear
6:53 AM 51.1 °F 48.0 °F 89% 29.96 in 10.0 mi Calm Calm - N/A   Clear
7:53 AM 57.9 °F 48.0 °F 70% 29.96 in 10.0 mi Calm Calm - N/A   Clear
8:53 AM 60.1 °F 48.0 °F 64% 29.96 in 10.0 mi West 3.5 mph - N/A   Clear
9:53 AM 64.9 °F 46.9 °F 52% 29.96 in 10.0 mi Variable 4.6 mph - N/A   Clear
10:53 AM 66.9 °F 48.0 °F 51% 29.96 in 10.0 mi Variable 3.5 mph - N/A   Clear
11:53 AM 64.9 °F 48.9 °F 56% 29.96 in 10.0 mi NNW 8.1 mph - N/A   Clear
12:53 PM 70.0 °F 48.9 °F 47% 29.95 in 10.0 mi NNE 4.6 mph - N/A   Clear
1:53 PM 72.0 °F 48.9 °F 44% 29.95 in 10.0 mi North 6.9 mph - N/A   Clear
2:53 PM 73.0 °F 48.0 °F 41% 29.94 in 10.0 mi North 5.8 mph - N/A   Clear
3:53 PM 73.9 °F 45.0 °F 35% 29.93 in 10.0 mi NNE 6.9 mph - N/A   Clear
4:53 PM 75.0 °F 44.1 °F 33% 29.93 in 10.0 mi North 9.2 mph - N/A   Clear
5:53 PM 73.9 °F 44.1 °F 34% 29.92 in 10.0 mi North 8.1 mph 16.1 mph N/A   Clear
6:53 PM 73.0 °F 48.0 °F 41% 29.92 in 10.0 mi WNW 8.1 mph - N/A   Clear
7:53 PM 71.1 °F 48.0 °F 44% 29.92 in 10.0 mi WNW 8.1 mph - N/A   Clear
8:53 PM 69.1 °F 48.9 °F 49% 29.92 in 10.0 mi WNW 5.8 mph - N/A   Clear
9:53 PM 66.9 °F 50.0 °F 54% 29.93 in 10.0 mi Calm Calm - N/A   Clear
10:53 PM 57.0 °F 48.9 °F 74% 29.93 in 10.0 mi SSW 5.8 mph - N/A   Clear
11:53 PM 55.0 °F 50.0 °F 83% 29.95 in 10.0 mi SSW 8.1 mph - N/A   Clear